Location: Branche des Alpilles
(43.6087°N, 4.6976°E)
Time: 09:24:41
(UTC+00:00)

FENGYUN 1C DEB - Pass Details

Date: 30 June 2021
Orbit: 782 x 878 km, 99.7° (Epoch: 28 July)

Event Time Altitude Azimuth Distance (km) Brightness Sun altitude
Exits shadow 00:47:35 18° 130° (SE) 1,873 ? -21.7°
Maximum altitude 00:51:06 43° 67° (ENE) 1,106 ? -21.5°
Drops below altitude 10° 00:55:57 10° 358° (N) 2,351 ? -21.3°
Sets 00:58:21 0° 352° (N) 3,281 ? -21.1°
